Regional Weather Roundup
Issued by NWS

Home | Current Version | Previous Version | Graphics & Text | Print | Product List | Glossary Off
Versions: 1 2 3 4 5 6 7 8 9 10 11 12 13 14 15 16 17 18 19 20 21 22 23 24 25 26 27 28 29 30 31 32 33 34 35 36 37 38 39 40 41 42 43 44 45 46 47 48 49 50

321
ASUS43 KMKX 081200
RWRWI

WISCONSIN REGIONAL WEATHER ROUNDUP
NATIONAL WEATHER SERVICE MILWAUKEE/SULLIVAN WI
600 AM CST MON FEB 08 2016

NOTE: "FAIR" INDICATES FEW OR NO CLOUDS BELOW 12,000 FEET WITH NO
SIGNIFICANT WEATHER AND/OR OBSTRUCTIONS TO VISIBILITY.

WIZ001-002-006>008-014>016-023>028-081300-
NORTHWEST WISCONSIN

CITY           SKY/WX    TMP DP  RH WIND       PRES   REMARKS
SUPERIOR ARPT  CLOUDY    13   7  74 NW16      29.82R WCI  -3
ASHLAND        CLOUDY    20  17  88 NW9       29.74R WCI   9
6HR MIN TEMP:  20; 6HR MAX TEMP:  28; 6HR PCP:  0.07;

HAYWARD        FLURRIES  13   7  77 VRB5      29.73R WCI   5
6HR MIN TEMP:  13; 6HR MAX TEMP:  22; 6HR PCP:  0.01;

SIREN          LGT SNOW  12   7  78 N16       29.80R WCI  -4
CUMBERLAND     LGT SNOW  12   9  85 NW17G24   29.73R WCI  -5
RICE LAKE      LGT SNOW  14   8  79 NW9G21    29.75R WCI   2
CHETEK         LGT SNOW  14  10  84 NW7       29.73R WCI   4
LADYSMITH      CLOUDY    18  14  84 NW14G24   29.68R FOG     WCI   4
EAU CLAIRE     LGT SNOW  16  10  77 NW14      29.73R WCI   2
MENOMONIE      LGT SNOW  16  10  78 NW17      29.75R WCI   0
NEW RICHMOND   FLURRIES  13   7  76 NW17G25   29.79R WCI  -4
OSCEOLA        FLURRIES  14   7  75 NW14G22   29.84R WCI  -1
$$

WIZ003>005-009-010-017-018-081300-
NORTH CENTRAL WISCONSIN

CITY           SKY/WX    TMP DP  RH WIND       PRES   REMARKS
MANITOWISH WTR LGT SNOW  20  18  89 N12G23    29.60R WCI   8
ARBOR VITAE    FLURRIES  24  19  84 N14G24    29.59R WCI  11
WOODRUFF       FLURRIES  24  19  84 N14G24    29.59R WCI  11
RHINELANDER    LGT SNOW  25  22  88 N10G16    29.56R FOG     WCI  15
6HR MIN TEMP:  24; 6HR MAX TEMP:  30; 6HR PCP:  0.01;

EAGLE RIVER    FLURRIES  25  23  93 N14G24    29.56R WCI  13
LAND O LAKES   LGT SNOW  22  19  89 N16       29.58R WCI   8
PHILLIPS       FLURRIES  22  19  89 N6        29.61R WCI  15
TOMAHAWK       CLOUDY    24  21  90 NW9       29.58R WCI  14
MEDFORD        LGT SNOW  19  17  90 NW9       29.59R WCI   8
MERRILL        CLOUDY    24  20  85 NW6       29.59R WCI  17
$$

WIZ029-030-035-036-043>047-081300-
CENTRAL WISCONSIN

CITY           SKY/WX    TMP DP  RH WIND       PRES   REMARKS
WAUSAU         CLOUDY    24  18  77 NW12      29.58R WCI  13
6HR MIN TEMP:  24; 6HR MAX TEMP:  32; 6HR PCP: TRACE;

MOSINEE        CLOUDY    21  19  93 NW10G17   29.60R WCI  10
MARSHFIELD     CLOUDY    18  12  77 NW15G21   29.61R WCI   4
6HR MIN TEMP:  18; 6HR MAX TEMP:  28; 6HR PCP: TRACE;

STEVENS POINT  CLOUDY    21  17  83 W7        29.60R WCI  12
WAUPACA        CLOUDY    29  22  76 W8        29.60R WCI  21
WAUTOMA        NOT AVBL
WISC RAPIDS    CLOUDY    20  13  74 NW13      29.65R WCI   7
6HR MIN TEMP:  20; 6HR MAX TEMP:  31; 6HR PCP: TRACE;

CAMP DOUGLAS   FLURRIES  19  19 100 NW13      29.66R WCI   7
$$

WIZ011>013-019>022-031-037>040-048>050-081300-
NORTHEAST WISCONSIN

CITY           SKY/WX    TMP DP  RH WIND       PRES   REMARKS
ANTIGO         CLOUDY    24  22  89 NW10      29.56R WCI  14
SHAWANO        CLOUDY    33  26  75 NW6       29.57R WCI  27
OCONTO         CLOUDY    31  31 100 CALM      29.56R
STURGEON BAY   CLOUDY    32  27  80 W3        29.58R
6HR MIN TEMP:  32; 6HR MAX TEMP:  36;

GREEN BAY      CLOUDY    32  27  81 W8        29.57R WCI  25
6HR MIN TEMP:  32; 6HR MAX TEMP:  35; 6HR PCP: TRACE;

MANITOWOC      LGT SNOW  34  30  86 W5        29.57R FOG     WCI  30
APPLETON       CLOUDY    28  23  80 W13       29.56R WCI  18
CLINTONVILLE   CLOUDY    30  23  74 NW10      29.58R WCI  21
OSHKOSH        CLOUDY    28  21  75 W12       29.59R WCI  18
6HR MIN TEMP:  28; 6HR MAX TEMP:  34; 6HR PCP:  0.01;

$$

WIZ032>034-041-042-053>061-081300-
SOUTHWEST WISCONSIN

CITY           SKY/WX    TMP DP  RH WIND       PRES   REMARKS
LA CROSSE      FLURRIES  19  12  74 NW14      29.73R WCI   6
6HR MIN TEMP:  18; 6HR MAX TEMP:  26; 6HR PCP: TRACE;

SPARTA         FLURRIES  19  14  82 W10G16    29.70R WCI   7
VIROQUA        CLOUDY    16  12  86 NW10      29.66R WCI   3
BOSCOBEL       LGT SNOW  20  15  81 NW6       29.72R WCI  12
6HR MIN TEMP:  20; 6HR MAX TEMP:  32; 6HR PCP: TRACE;

PRAIRIE DU CHI MIX PCPN  19  10  68 NW15G23   29.73R WCI   5
PLATTEVILLE    PTCLDY    21  17  86 NW14      29.66R WCI   8
$$

WIZ056-057-062-063-064-067-068-081300-
SOUTH CENTRAL WISCONSIN

CITY           SKY/WX    TMP DP  RH WIND       PRES   REMARKS
REEDSBURG      LGT SNOW  20  17  85 NW14      29.65R WCI   7
BARABOO/DELLS  CLOUDY    22  17  82 NW8       29.63R HAZE    WCI  12
LONE ROCK      LGT SNOW  22  16  78 NW13      29.68R WCI  10
6HR MIN TEMP:  22; 6HR MAX TEMP:  34; 6HR PCP: TRACE;

MINERAL POINT  LGT SNOW  21  19  93 W12G18    29.64R WCI   9
MADISON        FLURRIES  25  23  92 W8        29.62R WCI  16
6HR MIN TEMP:  25; 6HR MAX TEMP:  33; 6HR PCP: TRACE;

MIDDLETON      CLOUDY    27  22  84 NW13G18   29.62R WCI  16
WATERTOWN      CLOUDY    29  25  85 NW9       29.59R WCI  20
MONROE         CLOUDY    27  19  74 W16       29.61S WCI  14
JANESVILLE     CLOUDY    28  21  74 W16       29.62R WCI  17
$$

WIZ051-052-058>065-066-070>072-081300-
SOUTHEAST WISCONSIN

CITY           SKY/WX    TMP DP  RH WIND       PRES   REMARKS
MILWAUKEE      LGT SNOW  31  29  92 SW3       29.58S
6HR MIN TEMP:  30; 6HR MAX TEMP:  32; 6HR PCP: TRACE;

WAUKESHA       CLOUDY    28  27  93 W12       29.59R WCI  18
MILWAUKEE/TIMM LGT SNOW  32  30  93 CALM      29.58S
RACINE         CLOUDY    32  28  85 SW7       29.60S WCI  26
6HR MIN TEMP:  29; 6HR MAX TEMP:  33;

BURLINGTON     CLOUDY    30  28  91 W10       29.59R WCI  21
KENOSHA        CLOUDY    32  30  92 W9        29.59S FOG     WCI  24
6HR MIN TEMP:  29; 6HR MAX TEMP:  32;

FOND DU LAC    CLOUDY    29  22  75 NW12      29.59R WCI  19
6HR MIN TEMP:  29; 6HR MAX TEMP:  33; 6HR PCP:  0.01;

SHEBOYGAN      CLOUDY    31  27  85 NW12      29.57R WCI  22
6HR MIN TEMP:  27; 6HR MAX TEMP:  33;

WEST BEND      CLOUDY    32  28  86 NW10      29.57S WCI  24
JUNEAU         CLOUDY    28  23  81 W7        29.60R WCI  21
$$

LSZ147-162-081300-
LAKE SUPERIOR

STATION/POSITION TIME  TEMP    WIND        PRES    WAVE
                       AIR SEA DIR/SP/G            HT/PER
                 (UTC) (F)     (DEG/KT/KT) (MB)    (FT/S)
DEVILS ISLAND    1100   18     360/ 19/ 21 1008.1R
PORT WING        1100   20     320/ 16/ 20 1008.1
SAXON HARBOR     1100   23                 1005.8R
$$

LMZ867-665-643>646-081300-
LAKE MICHIGAN

STATION/POSITION TIME  TEMP    WIND        PRES    WAVE
                       AIR SEA DIR/SP/G            HT/PER
                 (UTC) (F)     (DEG/KT/KT) (MB)    (FT/S)
CHAMBERS ISLAND  1100   33     200/  3/  4 1001.4S
NORTHPORT PIER   1100   34      CALM  /  2 1001.4R
KEWAUNEE LAKESHO 1100   33     300/  3/  5 1000.3R
SHEBOYGAN LAKESH 1100   33     250/  5/  7 1001.8F
PORT WASHINGTON  1140   33     270/  3/  5 1002.7S
MILWAUKEE LAKESH 1110   33     240/  9/ 10   N/A
KENOSHA   LAKESH 1100   33     240/  8/ 11 1002.4F
$$

TC  - TEMPERATURE IN CELSIUS
VSB - VISIBILITY IN STATUTE MILES
WCI - WIND CHILL INDEX
HX  - HEAT INDEX





USA.gov is the U.S. government's official web portal to all federal, state and local government web resources and services.